Station Historical Data
Daily Summary for December 1, 2017 Units:  English    Metric   Both
« Previous Day
Next Day »
Daily Weekly Monthly Yearly Custom
  High: Low: Average:
Temperature: 48.3 °F 31.9 °F 41.1 °F
Dew Point: 35.0 °F 26.9 °F 31.6 °F
Humidity: 83% 54% 69%
Wind Speed: 7.0mph 0.0mph 2.2mph
Wind Gust: 14.0mph - -
Wind- - West
Pressure: 30.28 in 30.05 in -
Precipitation: 0.00 in    
Historical Graphs
 
 
Tabular Data for December 1, 2017
Time Temperature Dew Point Pressure Wind Wind Speed Wind Gust Humidity Rainfall Rate (Hourly)
00:04 43.1 °F 35.0 °F 30.05 in WNW 7.0 mph 11.0 mph 73% 0.00 in
00:14 43.0 °F 34.9 °F 30.05 in West 4.0 mph 9.0 mph 73% 0.00 in
00:19 42.9 °F 34.8 °F 30.06 in WNW 2.0 mph 9.0 mph 73% 0.00 in
00:24 42.8 °F 34.7 °F 30.05 in West 4.0 mph 7.0 mph 73% 0.00 in
00:29 42.8 °F 34.7 °F 30.06 in West 4.0 mph 10.0 mph 73% 0.00 in
00:34 42.8 °F 34.7 °F 30.06 in WNW 4.0 mph 10.0 mph 73% 0.00 in
00:39 42.7 °F 35.0 °F 30.06 in West 4.0 mph 10.0 mph 74% 0.00 in
00:44 42.6 °F 34.9 °F 30.06 in West 4.0 mph 9.0 mph 74% 0.00 in
00:54 42.7 °F 35.0 °F 30.07 in West 5.0 mph 11.0 mph 74% 0.00 in
00:59 42.5 °F 34.8 °F 30.07 in West 5.0 mph 11.0 mph 74% 0.00 in
01:04 42.5 °F 34.8 °F 30.07 in West 5.0 mph 10.0 mph 74% 0.00 in
01:14 42.4 °F 34.7 °F 30.08 in West 3.0 mph 9.0 mph 74% 0.00 in
01:19 42.4 °F 34.7 °F 30.08 in NW 3.0 mph 10.0 mph 74% 0.00 in
01:24 42.2 °F 34.5 °F 30.08 in West 6.0 mph 10.0 mph 74% 0.00 in
01:29 42.3 °F 34.6 °F 30.08 in WNW 3.0 mph 12.0 mph 74% 0.00 in
01:34 42.2 °F 34.5 °F 30.08 in West 5.0 mph 13.0 mph 74% 0.00 in
01:39 42.2 °F 34.5 °F 30.08 in NW 7.0 mph 11.0 mph 74% 0.00 in
01:44 42.1 °F 34.4 °F 30.08 in West 5.0 mph 13.0 mph 74% 0.00 in
01:49 42.0 °F 34.3 °F 30.09 in WNW 6.0 mph 13.0 mph 74% 0.00 in
01:54 42.0 °F 34.3 °F 30.09 in WNW 6.0 mph 11.0 mph 74% 0.00 in
01:59 41.9 °F 34.2 °F 30.10 in West 5.0 mph 11.0 mph 74% 0.00 in
02:04 41.9 °F 34.2 °F 30.10 in West 2.0 mph 9.0 mph 74% 0.00 in
02:09 41.9 °F 34.2 °F 30.10 in West 6.0 mph 8.0 mph 74% 0.00 in
02:14 41.9 °F 34.2 °F 30.10 in WNW 4.0 mph 12.0 mph 74% 0.00 in
02:19 41.9 °F 34.2 °F 30.10 in WNW 6.0 mph 12.0 mph 74% 0.00 in
02:24 41.9 °F 34.2 °F 30.11 in WNW 5.0 mph 11.0 mph 74% 0.00 in
02:29 41.9 °F 34.2 °F 30.11 in West 4.0 mph 8.0 mph 74% 0.00 in
02:34 41.9 °F 34.2 °F 30.11 in WNW 5.0 mph 9.0 mph 74% 0.00 in
02:39 41.9 °F 34.2 °F 30.12 in WSW 2.0 mph 9.0 mph 74% 0.00 in
02:44 41.9 °F 34.2 °F 30.12 in West 3.0 mph 10.0 mph 74% 0.00 in
02:59 41.6 °F 33.9 °F 30.12 in West 5.0 mph 14.0 mph 74% 0.00 in
03:04 41.6 °F 33.9 °F 30.12 in West 6.0 mph 14.0 mph 74% 0.00 in
03:09 41.5 °F 33.8 °F 30.13 in West 6.0 mph 12.0 mph 74% 0.00 in
03:14 41.4 °F 33.7 °F 30.13 in West 5.0 mph 12.0 mph 74% 0.00 in
03:19 41.4 °F 33.7 °F 30.13 in West 5.0 mph 12.0 mph 74% 0.00 in
03:24 41.4 °F 33.7 °F 30.13 in West 5.0 mph 9.0 mph 74% 0.00 in
03:29 41.2 °F 33.5 °F 30.14 in West 5.0 mph 9.0 mph 74% 0.00 in
03:34 41.2 °F 33.5 °F 30.14 in West 5.0 mph 9.0 mph 74% 0.00 in
03:39 41.0 °F 33.3 °F 30.14 in West 4.0 mph 9.0 mph 74% 0.00 in
03:44 40.9 °F 33.2 °F 30.14 in West 2.0 mph 9.0 mph 74% 0.00 in
03:49 40.9 °F 33.2 °F 30.14 in West 1.0 mph 7.0 mph 74% 0.00 in
03:54 40.8 °F 33.2 °F 30.15 in West 3.0 mph 6.0 mph 74% 0.00 in
03:59 40.8 °F 33.2 °F 30.15 in WNW 3.0 mph 6.0 mph 74% 0.00 in
04:04 40.8 °F 32.8 °F 30.15 in West 3.0 mph 6.0 mph 73% 0.00 in
04:14 40.7 °F 32.7 °F 30.15 in WNW 3.0 mph 7.0 mph 73% 0.00 in
04:19 40.8 °F 32.8 °F 30.16 in WNW 4.0 mph 7.0 mph 73% 0.00 in
04:24 40.8 °F 32.8 °F 30.16 in WNW 3.0 mph 7.0 mph 73% 0.00 in
04:29 40.7 °F 32.7 °F 30.16 in West 3.0 mph 6.0 mph 73% 0.00 in
04:34 40.7 °F 33.1 °F 30.16 in West 2.0 mph 6.0 mph 74% 0.00 in
04:39 40.7 °F 32.7 °F 30.16 in WSW 3.0 mph 6.0 mph 73% 0.00 in
04:44 40.7 °F 32.7 °F 30.16 in WSW 3.0 mph 9.0 mph 73% 0.00 in
04:49 40.6 °F 32.6 °F 30.16 in Calm   5.0 mph 73% 0.00 in
04:54 40.6 °F 32.6 °F 30.16 in WSW 2.0 mph 3.0 mph 73% 0.00 in
04:59 40.6 °F 32.6 °F 30.17 in Calm   3.0 mph 73% 0.00 in
05:04 40.5 °F 32.5 °F 30.16 in WSW 1.0 mph 3.0 mph 73% 0.00 in
05:09 40.5 °F 32.5 °F 30.17 in Calm   3.0 mph 73% 0.00 in
05:14 40.5 °F 32.5 °F 30.17 in Calm   5.0 mph 73% 0.00 in
05:19 40.5 °F 32.5 °F 30.17 in WSW 1.0 mph 5.0 mph 73% 0.00 in
05:24 40.4 °F 32.4 °F 30.17 in West 2.0 mph 4.0 mph 73% 0.00 in
05:29 40.3 °F 32.3 °F 30.17 in WNW 3.0 mph 4.0 mph 73% 0.00 in
05:34 40.3 °F 32.3 °F 30.17 in West 3.0 mph 7.0 mph 73% 0.00 in
05:39 40.4 °F 32.4 °F 30.18 in West 3.0 mph 7.0 mph 73% 0.00 in
05:44 40.4 °F 32.4 °F 30.17 in West 3.0 mph 5.0 mph 73% 0.00 in
05:49 40.5 °F 32.5 °F 30.18 in West 3.0 mph 7.0 mph 73% 0.00 in
05:54 40.5 °F 32.5 °F 30.18 in Calm   5.0 mph 73% 0.00 in
05:59 40.4 °F 32.4 °F 30.18 in Calm   3.0 mph 73% 0.00 in
06:04 40.4 °F 32.4 °F 30.18 in Calm   4.0 mph 73% 0.00 in
06:09 40.3 °F 32.7 °F 30.18 in WSW 1.0 mph 4.0 mph 74% 0.00 in
06:19 40.5 °F 32.5 °F 30.19 in West 2.0 mph 6.0 mph 73% 0.00 in
06:24 40.6 °F 32.6 °F 30.19 in WNW 2.0 mph 8.0 mph 73% 0.00 in
06:29 40.6 °F 32.3 °F 30.19 in West 1.0 mph 6.0 mph 72% 0.00 in
06:34 40.6 °F 32.3 °F 30.19 in West 2.0 mph 4.0 mph 72% 0.00 in
06:39 40.6 °F 32.3 °F 30.19 in West 1.0 mph 6.0 mph 72% 0.00 in
06:44 40.6 °F 32.6 °F 30.19 in West 2.0 mph 6.0 mph 73% 0.00 in
06:54 40.1 °F 32.1 °F 30.19 in Calm     73% 0.00 in
06:59 39.9 °F 31.9 °F 30.19 in Calm     73% 0.00 in
07:14 39.5 °F 31.9 °F 30.20 in Calm     74% 0.00 in
07:19 39.6 °F 32.0 °F 30.20 in Calm     74% 0.00 in
07:24 39.5 °F 31.9 °F 30.21 in Calm     74% 0.00 in
07:29 39.6 °F 32.0 °F 30.21 in Calm     74% 0.00 in
07:44 39.8 °F 32.2 °F 30.22 in Calm   4.0 mph 74% 0.00 in
07:49 39.9 °F 32.3 °F 30.22 in WNW 1.0 mph 4.0 mph 74% 0.00 in
07:59 40.1 °F 32.5 °F 30.22 in WNW 2.0 mph 5.0 mph 74% 0.00 in
08:04 40.2 °F 32.6 °F 30.22 in West 3.0 mph 6.0 mph 74% 0.00 in
08:09 40.3 °F 32.7 °F 30.23 in West 4.0 mph 5.0 mph 74% 0.00 in
08:14 40.4 °F 32.8 °F 30.23 in NW 2.0 mph 5.0 mph 74% 0.00 in
08:19 40.6 °F 33.0 °F 30.23 in West 2.0 mph 4.0 mph 74% 0.00 in
08:29 40.7 °F 33.1 °F 30.23 in WNW 3.0 mph 6.0 mph 74% 0.00 in
08:34 40.8 °F 33.2 °F 30.24 in WNW 2.0 mph 5.0 mph 74% 0.00 in
08:44 41.0 °F 32.7 °F 30.24 in NW 4.0 mph 6.0 mph 72% 0.00 in
08:54 41.2 °F 32.5 °F 30.24 in NNW 3.0 mph 4.0 mph 71% 0.00 in
08:59 41.3 °F 32.2 °F 30.24 in NNW 3.0 mph 5.0 mph 70% 0.00 in
09:09 41.7 °F 32.6 °F 30.24 in Calm   2.0 mph 70% 0.00 in
09:19 41.8 °F 32.4 °F 30.24 in NW 2.0 mph 4.0 mph 69% 0.00 in
09:29 42.0 °F 32.2 °F 30.24 in NW 3.0 mph 5.0 mph 68% 0.00 in
09:34 42.1 °F 32.3 °F 30.25 in WNW 3.0 mph 6.0 mph 68% 0.00 in
09:39 42.2 °F 31.6 °F 30.25 in NW 3.0 mph 7.0 mph 66% 0.00 in
09:49 42.5 °F 31.9 °F 30.25 in NNW 2.0 mph 8.0 mph 66% 0.00 in
09:54 42.8 °F 32.2 °F 30.25 in WNW 3.0 mph 7.0 mph 66% 0.00 in
09:59 42.7 °F 31.7 °F 30.25 in NW 3.0 mph 6.0 mph 65% 0.00 in
10:04 43.1 °F 31.4 °F 30.25 in NW 3.0 mph 7.0 mph 63% 0.00 in
10:19 44.0 °F 31.0 °F 30.25 in North 4.0 mph 9.0 mph 60% 0.00 in
10:24 44.0 °F 30.6 °F 30.25 in NNW 5.0 mph 8.0 mph 59% 0.00 in
10:29 44.0 °F 31.4 °F 30.25 in NW 3.0 mph 7.0 mph 61% 0.00 in
10:34 44.5 °F 31.5 °F 30.25 in NW 3.0 mph 7.0 mph 60% 0.00 in
10:39 44.7 °F 31.2 °F 30.24 in NW 3.0 mph 7.0 mph 59% 0.00 in
10:44 44.9 °F 31.4 °F 30.25 in NW 3.0 mph 6.0 mph 59% 0.00 in
10:59 44.6 °F 30.3 °F 30.24 in NNE 4.0 mph 9.0 mph 57% 0.00 in
11:04 44.8 °F 30.9 °F 30.24 in North 3.0 mph 9.0 mph 58% 0.00 in
11:09 45.3 °F 31.4 °F 30.24 in WNW 4.0 mph 7.0 mph 58% 0.00 in
11:14 45.2 °F 31.3 °F 30.24 in WNW 3.0 mph 7.0 mph 58% 0.00 in
11:29 45.1 °F 31.2 °F 30.24 in West 1.0 mph 6.0 mph 58% 0.00 in
11:34 45.4 °F 30.6 °F 30.23 in West 1.0 mph 7.0 mph 56% 0.00 in
11:39 45.5 °F 30.7 °F 30.23 in West 3.0 mph 7.0 mph 56% 0.00 in
11:44 45.8 °F 31.0 °F 30.23 in WNW 3.0 mph 7.0 mph 56% 0.00 in
11:49 45.7 °F 31.3 °F 30.23 in NW 4.0 mph 7.0 mph 57% 0.00 in
11:59 45.8 °F 31.9 °F 30.24 in WNW 2.0 mph 6.0 mph 58% 0.00 in
12:04 45.9 °F 30.6 °F 30.24 in WNW 2.0 mph 7.0 mph 55% 0.00 in
12:24 46.0 °F 31.2 °F 30.23 in West 3.0 mph 4.0 mph 56% 0.00 in
12:29 45.2 °F 30.0 °F 30.24 in Calm   5.0 mph 55% 0.00 in
12:34 45.4 °F 30.6 °F 30.24 in NNW 1.0 mph 5.0 mph 56% 0.00 in
12:39 46.1 °F 30.8 °F 30.23 in WNW 2.0 mph 6.0 mph 55% 0.00 in
12:49 46.6 °F 30.8 °F 30.23 in West 3.0 mph 8.0 mph 54% 0.00 in
12:54 46.7 °F 31.8 °F 30.23 in West 3.0 mph 8.0 mph 56% 0.00 in
12:59 46.1 °F 30.8 °F 30.24 in WNW 4.0 mph 8.0 mph 55% 0.00 in
13:04 45.3 °F 30.5 °F 30.24 in West 3.0 mph 7.0 mph 56% 0.00 in
13:09 45.1 °F 30.3 °F 30.23 in West 3.0 mph 7.0 mph 56% 0.00 in
13:14 44.9 °F 31.0 °F 30.23 in WSW 2.0 mph 6.0 mph 58% 0.00 in
13:19 44.5 °F 30.2 °F 30.23 in WNW 3.0 mph 6.0 mph 57% 0.00 in
13:24 44.9 °F 30.6 °F 30.23 in NW 2.0 mph 5.0 mph 57% 0.00 in
13:29 45.9 °F 31.5 °F 30.23 in NW 4.0 mph 7.0 mph 57% 0.00 in
13:34 47.1 °F 32.2 °F 30.23 in West 3.0 mph 6.0 mph 56% 0.00 in
13:39 47.6 °F 31.8 °F 30.23 in West 4.0 mph 7.0 mph 54% 0.00 in
13:49 48.0 °F 32.6 °F 30.23 in West 3.0 mph 4.0 mph 55% 0.00 in
13:54 48.3 °F 32.4 °F 30.23 in West 3.0 mph 6.0 mph 54% 0.00 in
14:04 47.3 °F 31.5 °F 30.23 in SW 4.0 mph 10.0 mph 54% 0.00 in
14:09 47.0 °F 31.2 °F 30.23 in WSW 4.0 mph 8.0 mph 54% 0.00 in
14:14 47.1 °F 32.2 °F 30.23 in WSW 4.0 mph 7.0 mph 56% 0.00 in
14:19 46.9 °F 31.1 °F 30.24 in SW 5.0 mph 7.0 mph 54% 0.00 in
14:24 46.7 °F 31.4 °F 30.24 in WSW 4.0 mph 8.0 mph 55% 0.00 in
14:29 46.8 °F 31.5 °F 30.24 in WSW 3.0 mph 6.0 mph 55% 0.00 in
14:39 47.0 °F 32.1 °F 30.24 in WSW 3.0 mph 7.0 mph 56% 0.00 in
14:44 46.9 °F 31.6 °F 30.24 in South 4.0 mph 6.0 mph 55% 0.00 in
14:49 46.9 °F 31.6 °F 30.23 in SSW 3.0 mph 9.0 mph 55% 0.00 in
14:54 46.5 °F 31.6 °F 30.23 in West 3.0 mph 6.0 mph 56% 0.00 in
14:59 46.4 °F 31.5 °F 30.23 in SW 4.0 mph 7.0 mph 56% 0.00 in
15:09 46.3 °F 31.4 °F 30.24 in WSW 4.0 mph 8.0 mph 56% 0.00 in
15:24 45.2 °F 31.3 °F 30.24 in WSW 3.0 mph 8.0 mph 58% 0.00 in
15:29 44.6 °F 30.7 °F 30.24 in SW 4.0 mph 7.0 mph 58% 0.00 in
15:39 44.6 °F 30.7 °F 30.25 in WSW 4.0 mph 9.0 mph 58% 0.00 in
15:44 44.6 °F 30.7 °F 30.25 in WSW 2.0 mph 10.0 mph 58% 0.00 in
15:49 44.4 °F 30.5 °F 30.25 in SW 4.0 mph 9.0 mph 58% 0.00 in
16:04 44.3 °F 30.0 °F 30.24 in WSW 5.0 mph 7.0 mph 57% 0.00 in
16:09 44.1 °F 29.8 °F 30.24 in WSW 4.0 mph 9.0 mph 57% 0.00 in
16:14 43.8 °F 30.0 °F 30.24 in WSW 4.0 mph 9.0 mph 58% 0.00 in
16:29 43.0 °F 30.1 °F 30.24 in SW 5.0 mph 8.0 mph 60% 0.00 in
16:34 42.8 °F 29.9 °F 30.24 in SW 3.0 mph 9.0 mph 60% 0.00 in
16:44 42.3 °F 30.2 °F 30.24 in SW 3.0 mph 7.0 mph 62% 0.00 in
16:49 42.2 °F 30.1 °F 30.24 in WSW 4.0 mph 7.0 mph 62% 0.00 in
16:54 42.0 °F 30.3 °F 30.24 in SSW 2.0 mph 5.0 mph 63% 0.00 in
16:59 41.8 °F 30.5 °F 30.24 in SW 2.0 mph 4.0 mph 64% 0.00 in
17:04 41.3 °F 30.0 °F 30.24 in SW 1.0 mph 4.0 mph 64% 0.00 in
17:09 40.9 °F 30.0 °F 30.25 in Calm   2.0 mph 65% 0.00 in
17:19 40.2 °F 29.7 °F 30.25 in Calm   2.0 mph 66% 0.00 in
17:24 40.2 °F 30.1 °F 30.25 in Calm   4.0 mph 67% 0.00 in
17:29 40.1 °F 30.0 °F 30.25 in SW 1.0 mph 4.0 mph 67% 0.00 in
17:44 39.6 °F 30.3 °F 30.26 in Calm   2.0 mph 69% 0.00 in
17:49 39.4 °F 30.1 °F 30.26 in Calm   2.0 mph 69% 0.00 in
17:54 39.1 °F 29.8 °F 30.26 in Calm     69% 0.00 in
17:59 39.0 °F 30.0 °F 30.26 in Calm     70% 0.00 in
18:04 39.1 °F 30.5 °F 30.27 in Calm     71% 0.00 in
18:09 39.1 °F 30.1 °F 30.27 in Calm     70% 0.00 in
18:14 39.1 °F 30.5 °F 30.27 in Calm     71% 0.00 in
18:19 38.8 °F 30.2 °F 30.27 in Calm     71% 0.00 in
18:24 38.8 °F 30.5 °F 30.27 in Calm     72% 0.00 in
18:29 38.4 °F 30.2 °F 30.27 in Calm     72% 0.00 in
18:34 37.9 °F 29.7 °F 30.27 in Calm     72% 0.00 in
18:39 37.4 °F 29.9 °F 30.27 in Calm     74% 0.00 in
18:44 37.3 °F 30.1 °F 30.27 in Calm     75% 0.00 in
18:49 37.2 °F 30.0 °F 30.28 in Calm     75% 0.00 in
18:54 36.9 °F 29.7 °F 30.27 in Calm     75% 0.00 in
18:59 36.8 °F 29.9 °F 30.27 in Calm     76% 0.00 in
19:04 36.7 °F 29.8 °F 30.27 in Calm     76% 0.00 in
19:09 36.6 °F 29.7 °F 30.27 in Calm     76% 0.00 in
19:14 36.8 °F 30.3 °F 30.27 in Calm     77% 0.00 in
19:19 37.0 °F 30.5 °F 30.27 in Calm     77% 0.00 in
19:24 37.6 °F 31.4 °F 30.27 in Calm     78% 0.00 in
19:29 37.1 °F 30.2 °F 30.27 in Calm     76% 0.00 in
19:34 36.7 °F 30.5 °F 30.27 in Calm     78% 0.00 in
19:39 37.0 °F 30.8 °F 30.27 in Calm     78% 0.00 in
19:49 36.9 °F 30.4 °F 30.27 in Calm     77% 0.00 in
19:54 36.5 °F 30.0 °F 30.27 in Calm     77% 0.00 in
19:59 36.1 °F 29.9 °F 30.27 in Calm     78% 0.00 in
20:14 36.6 °F 30.1 °F 30.26 in Calm     77% 0.00 in
20:19 36.6 °F 30.1 °F 30.27 in Calm     77% 0.00 in
20:24 36.6 °F 30.1 °F 30.27 in Calm     77% 0.00 in
20:44 36.7 °F 29.5 °F 30.26 in Calm     75% 0.00 in
20:49 36.8 °F 29.6 °F 30.26 in Calm   3.0 mph 75% 0.00 in
20:54 36.9 °F 29.7 °F 30.26 in SSE 1.0 mph 2.0 mph 75% 0.00 in
20:59 36.9 °F 29.7 °F 30.26 in Calm   2.0 mph 75% 0.00 in
21:04 36.8 °F 29.6 °F 30.26 in Calm   2.0 mph 75% 0.00 in
21:14 36.2 °F 29.0 °F 30.26 in Calm     75% 0.00 in
21:19 36.2 °F 29.0 °F 30.26 in Calm   2.0 mph 75% 0.00 in
21:24 35.8 °F 28.6 °F 30.26 in Calm   2.0 mph 75% 0.00 in
21:39 35.2 °F 28.4 °F 30.26 in Calm     76% 0.00 in
22:04 33.8 °F 27.7 °F 30.26 in Calm     78% 0.00 in
22:14 33.5 °F 27.7 °F 30.25 in Calm     79% 0.00 in
22:24 33.2 °F 27.4 °F 30.25 in Calm     79% 0.00 in
22:29 33.2 °F 27.4 °F 30.26 in Calm     79% 0.00 in
22:44 32.9 °F 27.4 °F 30.26 in Calm     80% 0.00 in
22:59 32.4 °F 27.2 °F 30.26 in Calm     81% 0.00 in
23:04 32.4 °F 27.2 °F 30.26 in Calm     81% 0.00 in
23:09 32.2 °F 27.0 °F 30.26 in Calm     81% 0.00 in
23:14 32.1 °F 26.9 °F 30.26 in Calm     81% 0.00 in
23:19 32.0 °F 27.1 °F 30.26 in Calm     82% 0.00 in
23:29 31.9 °F 27.0 °F 30.26 in Calm     82% 0.00 in
23:34 31.9 °F 27.0 °F 30.26 in Calm     82% 0.00 in
23:44 32.0 °F 27.4 °F 30.26 in Calm     83% 0.00 in
23:54 32.2 °F 27.6 °F 30.25 in Calm     83% 0.00 in
23:59 32.1 °F 27.5 °F 30.25 in Calm     83% 0.00 in
Buffalo, New York, USA
Compliments of Weather Underground - 2 mb